[[{"header":{"parameterUnit":"m.s-1","parameterCategory":1,"la1":30.2991,"la2":30.254,"lo1":-89.0895,"lo2":-89.0444,"dy":0.0017,"dx":0.0017,"nx":28,"ny":28,"refTime":"2025-04-26T21:00:00:Z","depth":0,"parameterNumber":2,"parameterNumberName":"U-component_of_WINDS"},"data":[0,0,0,0,0,0,0,0,0,0,0,0,0,0,0,0,0,0,0,0,0,0,0,0,0,0,0,0,0,0,0,0,0,0,0,0,0,0,0,0,0,0,0,0,0,0,0,0,0,0,0,0,0,0,0,0,0,0,0.8106,0.8108,0,0.8273,0.8275,0.8276,0.8338,0.8337,0.8337,0.8336,0.8507,0.8512,0.8517,0,0,0,0,0,0,0,0,0,0,0,0,0,0.7841,0.7845,0.8106,0.8108,0.811,0.8272,0.8275,0.8277,0.8338,0.8337,0.8337,0.8336,0.8506,0.8512,0.8518,0,0,0,0,0,0,0,0,0,0,0,0,0,0.7977,0.7847,0.8106,0.816,0.8167,0.8272,0.8275,0.8278,0.8338,0.8337,0.8336,0.8336,0.8504,0.8511,0.8518,0.8582,0,0,0.8542,0.8545,0,0,0,0,0,0,0,0,0.7969,0.7986,0.815,0.8157,0.8164,0.8284,0.8244,0.838,0.8338,0.8273,0.8336,0.8335,0.8434,0.8447,0.848,0.859,0.8597,0.8542,0.8547,0.855,0.8552,0,0,0,0,0,0,0,0.7959,0.7979,0.8172,0.8152,0.8161,0.8176,0.8195,0.827,0.8356,0.8279,0.8283,0.8302,0.8437,0.8472,0.8484,0.86,0.8542,0.8549,0.8554,0.8557,0.877,0.8771,0,0,0,0,0,0,0.7941,0.7971,0.8167,0.8177,0.8062,0.8182,0.8202,0.8246,0.8355,0.8371,0.8303,0.8305,0.846,0.8475,0.8491,0.8572,0.855,0.8557,0.8562,0.8769,0.877,0.8771,0,0,0,0,0,0,0.7935,0.7958,0.816,0.8076,0.8102,0.8187,0.8236,0.825,0.8285,0.8374,0.8389,0.8323,0.846,0.848,0.8559,0.8578,0.8561,0.8568,0.8767,0.8769,0.8771,0.8734,0,0,0,0,0,0,0.7927,0.7955,0.798,0.8076,0.8107,0.8225,0.8237,0.8254,0.8298,0.8302,0.8397,0.8411,0.8461,0.8547,0.8566,0.8589,0.8574,0.8766,0.8768,0.877,0.8734,0.8734,0.8735,0,0,0,0,0,0.7917,0.7963,0.7981,0.8004,0.814,0.8226,0.8244,0.8299,0.8299,0.8325,0.8382,0.8408,0.8573,0.8554,0.8577,0.8602,0.8765,0.8768,0.877,0.8734,0.8734,0.8735,0,0,0,0,0,0,0.7868,0.7977,0.7998,0.8076,0.8141,0.8236,0.827,0.8298,0.8365,0.8366,0.8432,0.8453,0.8526,0.8572,0.8549,0.8669,0.8671,0.8678,0.8636,0.8637,0.8637,0.8625,0.858,0,0,0,0,0,0.7866,0.7927,0.8019,0.8079,0.8111,0.8185,0.8224,0.8262,0.8332,0.836,0.8423,0.849,0.8557,0.86,0.8666,0.8741,0.8763,0.8769,0.877,0.8769,0.8775,0.8817,0.8821,0.8779,0.8779,0.8779,0,0,0.7863,0.793,0.7965,0.8071,0.8126,0.8188,0.8208,0.8272,0.8318,0.837,0.8448,0.8496,0.8576,0.8652,0.8689,0.8693,0.8791,0.8773,0.8772,0.8777,0.882,0.8824,0.8828,0.8781,0.8781,0.878,0,0,0.7889,0.7946,0.8002,0.8057,0.814,0.8189,0.8202,0.8293,0.8327,0.8406,0.8446,0.8502,0.8616,0.8671,0.8714,0.876,0.8787,0.878,0.8782,0.8823,0.8826,0.8829,0.8845,0.885,0.8785,0.8785,0.8785,0,0.7875,0.7969,0.8028,0.809,0.8135,0.8185,0.8242,0.8292,0.8392,0.8423,0.8425,0.8569,0.8626,0.8716,0.8728,0.8761,0.8778,0.8769,0.8821,0.8825,0.8828,0.8845,0.8851,0.8783,0.8784,0.8784,0.8784,0,0.7947,0.8012,0.8048,0.8143,0.8193,0.8252,0.8319,0.8363,0.8395,0.8444,0.8524,0.8594,0.8675,0.87,0.8732,0.8795,0.8794,0.8808,0.8811,0.883,0.8846,0.8853,0.8781,0.8782,0.8782,0.8783,0,0,0.7946,0.8073,0.8085,0.8129,0.8224,0.8275,0.8337,0.8417,0.8452,0.852,0.8573,0.8668,0.8681,0.873,0.8769,0.8805,0.8837,0.8815,0.8818,0.8816,0.8909,0.8898,0.8904,0.8855,0.8857,0.8858,0.8902,0,0.7984,0.8097,0.8151,0.8239,0.83,0.8348,0.8401,0.8465,0.8512,0.857,0.8622,0.8689,0.8701,0.8731,0.8768,0.8825,0.8856,0.8823,0.8905,0.8908,0.8883,0.8913,0.8901,0.894,0.8909,0.891,0.8911,0,0.8044,0.8111,0.8205,0.8293,0.832,0.8367,0.8445,0.85,0.8573,0.8605,0.8659,0.8697,0.8764,0.8762,0.8855,0.8831,0.8868,0.8901,0.8904,0.8913,0.891,0.8923,0.8953,0.8959,0.8922,0.8921,0.892,0,0.8033,0.8147,0.8218,0.8254,0.8358,0.839,0.8435,0.8508,0.8552,0.862,0.8649,0.8723,0.8764,0.882,0.8878,0.8872,0.8965,0.8968,0.8993,0.8991,0.901,0.9008,0.9046,0.9034,0.9034,0.9034,0.9034,0,0.8069,0.8125,0.8214,0.8258,0.8322,0.8384,0.8445,0.8494,0.8558,0.8612,0.8658,0.8708,0.878,0.8839,0.8885,0.8954,0.8972,0.9,0.9011,0.8995,0.8992,0.902,0.9019,0.9036,0.9035,0.9035,0.9035,0,0.8068,0.813,0.8211,0.8303,0.8327,0.837,0.8449,0.8493,0.8542,0.861,0.8629,0.8706,0.8778,0.8841,0.8935,0.8966,0.9037,0.9051,0.9012,0.9018,0.9039,0.9036,0.9097,0.9108,0.9088,0.9088,0.9088,0,0.8087,0.8131,0.8227,0.8267,0.8311,0.8374,0.8419,0.8482,0.8527,0.8614,0.8648,0.8722,0.8786,0.8898,0.8962,0.9035,0.9051,0.9067,0.9062,0.9045,0.9051,0.9047,0.9052,0.9067,0.9067,0.9067,0.9066,0,0.8113,0.8142,0.8206,0.828,0.8333,0.8394,0.8457,0.8487,0.8561,0.861,0.8683,0.8732,0.8829,0.8902,0.8982,0.9028,0.906,0.9068,0.9077,0.9061,0.9037,0.905,0.9011,0.9066,0.9066,0.9066,0.9066,0.9066,0.8123,0.8164,0.8238,0.8308,0.8361,0.8419,0.8465,0.852,0.8582,0.8666,0.8699,0.8774,0.8846,0.8956,0.9003,0.9062,0.9068,0.9081,0.9085,0.9087,0.9084,0.9027,0.9077,0.9077,0.9077,0.9077,0.9077,0,0.8151,0.8202,0.8265,0.8351,0.8406,0.8431,0.8501,0.8545,0.861,0.8675,0.8736,0.8821,0.8892,0.8962,0.9038,0.9072,0.9088,0.9089,0.9087,0.9097,0.9075,0.9059,0.9075,0.9075,0.9075,0.9075,0.9075,0.9075,0.8173,0.8244,0.8281,0.8379,0.8429,0.8503,0.8541,0.8594,0.8647,0.8739,0.8798,0.8843,0.8911,0.8991,0.9058,0.9077,0.9102,0.9099,0.9122,0.91,0.9099,0.9098,0.9084,0.9104,0.9104,0.9139,0.9139,0.914]},{"header":{"parameterUnit":"m.s-1","parameterCategory":1,"la1":30.2991,"la2":30.254,"lo1":-89.0895,"lo2":-89.0444,"dy":0.0017,"dx":0.0017,"nx":28,"ny":28,"refTime":"2025-04-26T21:00:00:Z","depth":0,"parameterNumber":3,"parameterNumberName":"V-component_of_WINDS"},"data":[0,0,0,0,0,0,0,0,0,0,0,0,0,0,0,0,0,0,0,0,0,0,0,0,0,0,0,0,0,0,0,0,0,0,0,0,0,0,0,0,0,0,0,0,0,0,0,0,0,0,0,0,0,0,0,0,0,0,3.5023,3.5022,0,3.4971,3.4971,3.497,3.4904,3.4903,3.4902,3.49,3.4845,3.4845,3.4844,0,0,0,0,0,0,0,0,0,0,0,0,0,3.5062,3.5062,3.5023,3.5022,3.5022,3.4971,3.4971,3.497,3.4904,3.4903,3.4901,3.49,3.4846,3.4845,3.4844,0,0,0,0,0,0,0,0,0,0,0,0,0,3.5031,3.5062,3.5023,3.4983,3.4978,3.4972,3.4971,3.497,3.4904,3.4903,3.4901,3.4899,3.4846,3.4845,3.4844,3.4872,0,0,3.4842,3.4842,0,0,0,0,0,0,0,0,3.5033,3.503,3.4989,3.4985,3.4981,3.4942,3.4964,3.4937,3.4905,3.4932,3.49,3.4899,3.4879,3.4875,3.4869,3.487,3.4867,3.4842,3.4842,3.4841,3.4841,0,0,0,0,0,0,0,3.5035,3.5032,3.5002,3.4989,3.4984,3.4966,3.496,3.4959,3.4915,3.493,3.4925,3.492,3.4876,3.487,3.4867,3.4866,3.4842,3.4842,3.4841,3.4841,3.4887,3.4889,0,0,0,0,0,0,3.5044,3.5034,3.5004,3.5001,3.5004,3.4967,3.496,3.4956,3.4915,3.4907,3.4921,3.4917,3.4872,3.4868,3.4865,3.4895,3.4841,3.4841,3.484,3.4885,3.4887,3.4889,0,0,0,0,0,0,3.5045,3.5042,3.5006,3.5016,3.501,3.4968,3.4964,3.4956,3.495,3.4908,3.49,3.4923,3.487,3.4866,3.4871,3.4892,3.484,3.484,3.4883,3.4886,3.4888,3.4955,0,0,0,0,0,0,3.5046,3.5043,3.5053,3.5017,3.501,3.5014,3.4966,3.4956,3.4949,3.4943,3.4908,3.4901,3.4869,3.4872,3.487,3.489,3.4839,3.4881,3.4885,3.4887,3.4951,3.4959,3.4967,0,0,0,0,0,3.5048,3.5074,3.5054,3.5051,3.5022,3.5015,3.5011,3.4975,3.4951,3.4961,3.4934,3.4902,3.489,3.4874,3.4871,3.489,3.488,3.4884,3.4887,3.4947,3.4958,3.4967,0,0,0,0,0,0,3.5113,3.5068,3.5046,3.5061,3.5042,3.5004,3.5015,3.4987,3.4975,3.4969,3.4924,3.4917,3.4927,3.4909,3.4891,3.4915,3.488,3.4883,3.4927,3.4936,3.4944,3.4948,3.4839,0,0,0,0,0,3.5129,3.5127,3.5088,3.5105,3.5097,3.5058,3.5053,3.5027,3.5006,3.4998,3.4971,3.4951,3.4943,3.4939,3.4929,3.4948,3.4939,3.496,3.4968,3.4975,3.4978,3.4987,3.4995,3.4901,3.4901,3.4901,0,0,3.5162,3.5137,3.5139,3.5117,3.51,3.5099,3.5052,3.5052,3.5051,3.4997,3.5001,3.4981,3.4956,3.4968,3.4972,3.4953,3.5002,3.498,3.4985,3.4985,3.4991,3.5,3.5008,3.4904,3.4903,3.4903,0,0,3.5221,3.5203,3.5214,3.5198,3.5173,3.5147,3.515,3.5116,3.5101,3.5104,3.5064,3.5061,3.5048,3.5032,3.5022,3.5076,3.5045,3.5074,3.5116,3.5125,3.5132,3.5138,3.5158,3.5165,3.5077,3.5077,3.5077,0,3.5265,3.5262,3.5224,3.5227,3.5219,3.5171,3.5183,3.5169,3.5141,3.5136,3.5116,3.5099,3.5078,3.5086,3.5099,3.5093,3.5094,3.5077,3.5134,3.514,3.5146,3.5163,3.5171,3.5081,3.5081,3.508,3.508,0,3.5317,3.5316,3.5329,3.5305,3.5297,3.5305,3.5267,3.5264,3.5239,3.5215,3.5219,3.5193,3.5177,3.5177,3.5151,3.5181,3.517,3.5143,3.5106,3.5159,3.5175,3.5181,3.5086,3.5085,3.5084,3.5083,0,0,3.5416,3.5371,3.5376,3.5364,3.5333,3.5331,3.5336,3.5322,3.532,3.5303,3.5306,3.5296,3.5271,3.526,3.5232,3.524,3.5284,3.5211,3.521,3.5226,3.5315,3.5336,3.5344,3.5264,3.5265,3.5266,3.5317,0,3.5469,3.5476,3.5442,3.5458,3.5456,3.5411,3.5415,3.5396,3.5374,3.5369,3.5344,3.5338,3.5305,3.5298,3.5304,3.5278,3.5302,3.5274,3.5266,3.5266,3.5273,3.5352,3.5374,3.5424,3.5323,3.5324,3.5325,0,3.5532,3.5519,3.5535,3.5504,3.5502,3.5506,3.549,3.5486,3.5464,3.5447,3.5435,3.5404,3.5406,3.5372,3.5374,3.5356,3.535,3.5337,3.5338,3.5335,3.5298,3.5352,3.5439,3.5446,3.5334,3.5333,3.5333,0,3.5602,3.5589,3.5597,3.5588,3.5551,3.5556,3.5541,3.5517,3.551,3.5496,3.5491,3.5477,3.5469,3.5459,3.5424,3.5403,3.543,3.5393,3.5416,3.5417,3.5424,3.5424,3.5511,3.5421,3.5421,3.5421,3.542,0,3.5665,3.5677,3.5628,3.5633,3.5644,3.5604,3.5617,3.5597,3.5576,3.5576,3.5536,3.5536,3.549,3.5486,3.5458,3.5464,3.5461,3.5447,3.544,3.5451,3.5453,3.5446,3.5442,3.5422,3.5422,3.5422,3.5421,0,3.5745,3.5713,3.5719,3.5684,3.5675,3.5685,3.5655,3.5658,3.5633,3.5634,3.5631,3.5593,3.5585,3.555,3.5533,3.5515,3.553,3.5515,3.5538,3.5533,3.5558,3.5556,3.5644,3.5653,3.5558,3.5559,3.5559,0,3.5788,3.5796,3.5762,3.5759,3.5746,3.5742,3.5736,3.5697,3.5692,3.5667,3.5673,3.5662,3.5651,3.5641,3.5611,3.5598,3.5583,3.5615,3.5581,3.5592,3.5583,3.5584,3.5584,3.5622,3.5623,3.5624,3.5625,0,3.5866,3.585,3.5843,3.583,3.5823,3.5811,3.5796,3.5796,3.5753,3.5749,3.5741,3.5733,3.5717,3.5707,3.5689,3.5672,3.5642,3.5636,3.5641,3.5652,3.5665,3.5658,3.5558,3.5634,3.5633,3.5633,3.5632,3.5632,3.5929,3.5934,3.5911,3.5904,3.5889,3.5876,3.5877,3.5854,3.5847,3.5831,3.5808,3.5804,3.5781,3.5754,3.574,3.5735,3.5718,3.5724,3.5726,3.5728,3.5734,3.5666,3.5732,3.5731,3.5731,3.5731,3.573,0,3.6005,3.5989,3.5983,3.5964,3.5958,3.5931,3.5913,3.591,3.5907,3.5888,3.5879,3.587,3.586,3.583,3.5816,3.5818,3.5804,3.5816,3.5816,3.5812,3.575,3.5747,3.5828,3.5828,3.5828,3.5828,3.5828,3.5828,3.6044,3.6052,3.6033,3.6032,3.6015,3.6011,3.6003,3.5991,3.5976,3.5968,3.596,3.5941,3.5917,3.5902,3.5892,3.5883,3.588,3.5897,3.5883,3.5826,3.5817,3.5808,3.5805,3.5896,3.5897,3.5946,3.5946,3.5947]}]]